Location: ???????
(52.3000°N, 54.4667°E)
Time: 20:05:04
(UTC+00:00)

Daily predictions for brighter satellites

Satellite Brightness Start Highest point End
(mag) Time Altitude Azimuth Time Altitude Azimuth Time Altitude Azimuth
IRS-1C Rocket 4.1 13:25:39 10° SSE 13:30:54 77° ENE 13:36:11 10° NNW
NOAA 12 4.2 13:26:07 10° SE 13:31:13 57° ENE 13:36:22 10° N
Cosmos 1626 Rocket 3.6 13:27:39 10° S 13:31:54 58° E 13:36:09 10° NNE
NOSS 2-1 (C) 4.2 13:27:38 10° NW 13:32:32 77° NE 13:39:24 10° SE
Starlink D 2.9 13:29:56 10° WSW 13:33:04 78° SSE 13:36:13 10° ENE
Cosmos 1607 4.0 13:27:05 10° SW 13:33:12 79° SE 13:39:25 10° NE
Cosmos 2082 Rocket 4.3 13:30:48 10° NW 13:33:58 15° NNW 13:37:08 10° NNE
Starlink S 2.9 13:31:47 10° WSW 13:34:55 79° SSE 13:38:04 10° ENE
Nadezhda 3 Rocket 4.0 13:28:49 10° N 13:35:08 73° ENE 13:41:27 10° SSE
NOSS 2-1 (D) 4.2 13:31:27 10° NW 13:36:23 80° NE 13:43:18 10° SE
Starlink C 2.9 13:33:34 10° WSW 13:36:43 80° SSE 13:39:52 10° ENE
Cosmos 1674 3.7 13:33:49 10° SSW 13:37:24 46° WNW 13:41:02 10° N
Starlink E 2.9 13:35:27 10° WSW 13:38:35 81° SSE 13:41:45 10° ENE
Cosmos 2237 Rocket 2.2 13:34:18 10° NNW 13:39:59 87° ENE 13:45:37 10° SSE
AQUARIUS 4.2 13:35:57 10° SSE 13:40:27 85° ENE 13:44:59 10° NNW
Starlink J 2.9 13:37:18 10° WSW 13:40:27 82° SSE 13:43:35 10° ENE
YAOGAN 6 3.1 13:37:38 10° SE 13:41:03 37° ENE 13:44:27 10° N
Starlink V 2.9 13:39:09 10° WSW 13:42:18 84° S 13:45:21 11° ENE
Cosmos 494 Rocket 4.2 13:37:32 10° NNW 13:42:41 79° WSW 13:47:47 10° SSE
Starlink H 2.9 13:41:02 10° WSW 13:44:11 85° SSE 13:47:10 11° ENE
Cosmos 1939 Rocket 4.2 13:42:53 10° ESE 13:45:47 20° ENE 13:48:41 10° NNE
SJ 16-02 3.5 13:42:22 10° W 13:45:49 22° NW 13:49:18 10° N
Starlink F 2.9 13:42:54 10° WSW 13:46:04 86° SSE 13:48:59 12° ENE
CZ-4C R/B 3.9 13:39:14 10° NW 13:46:07 54° SW 13:53:59 10° SSE
Starlink G 2.9 13:44:47 10° WSW 13:47:56 87° S 13:50:47 12° ENE
Cosmos 1626 2.0 13:44:49 10° S 13:48:31 78° E 13:52:15 10° NNE
ATLAS 5 CENTAUR R/B 2.7 13:44:28 10° W 13:48:41 40° NNW 13:53:32 10° NE
Starlink L 2.9 13:46:39 10° WSW 13:49:49 88° S 13:52:35 13° ENE
Okean O Rocket 3.6 13:45:55 10° SSW 13:49:57 34° W 13:54:02 10° NNW
CSL-04 Rocket 4.3 13:45:08 10° SE 13:50:06 36° ENE 13:55:08 10° N
Cosmos 2333 Rocket 4.1 13:45:01 10° NW 13:50:08 35° WSW 13:55:13 10° S
Cosmos 1300 3.2 13:47:30 10° NNW 13:51:18 65° W 13:55:05 10° S
SMAP 3.4 13:46:42 10° S 13:51:20 72° WSW 13:56:01 10° NNW
COBE Rocket 4.3 13:46:19 10° N 13:51:29 75° WNW 13:56:38 10° SSW
Starlink A 2.9 13:48:32 10° WSW 13:51:42 89° S 13:54:25 14° ENE
Cosmos 1825 Rocket 4.3 13:48:25 10° SSE 13:52:15 31° E 13:56:05 10° NNE
PSLV R/B 3.9 13:49:08 10° NNE 13:53:14 83° ESE 13:57:20 10° SSW
USA 234 3.9 13:46:56 10° SE 13:53:22 58° SW 13:59:49 10° WNW
Starlink R 2.9 13:50:26 10° WSW 13:53:36 90° W 13:56:14 14° E
Okean-O 2.6 13:49:57 10° SSE 13:54:21 66° ENE 13:58:46 10° N
Starlink K 2.9 13:52:18 10° WSW 13:55:28 89° N 13:58:02 15° E
Starlink M 2.9 13:54:09 10° W 13:57:19 88° NNW 13:59:49 15° E
SL-8 Rocket 4.5 13:51:49 10° SSE 13:57:31 38° E 14:03:13 10° NNE
Ariane Rocket 4.2 13:54:14 10° ESE 13:57:57 21° NE 14:01:41 10° N
Timation 2 Rocket 4.1 13:57:28 10° SW 14:03:38 79° NW 14:10:07 10° NNE
SL-16 R/B 2.3 13:58:00 10° NNW 14:03:39 59° NE 14:09:14 10° SE
Cosmos 1455 2.5 14:01:42 10° N 14:05:21 41° ENE 14:08:58 10° SE
Starlink AR 2.3 14:04:19 10° W 14:06:54 78° N 14:08:23 22° ENE
CZ-2D R/B 4.0 14:05:44 10° SE 14:09:06 30° ENE 14:12:30 10° N
Cosmos 2341 Rocket 4.1 14:03:02 10° S 14:09:15 59° E 14:15:28 10° NNE
Cosmos 2221 3.9 14:07:12 10° NNE 14:10:11 18° ENE 14:11:06 17° E
SKYMED 2 4.0 14:06:12 10° NNE 14:10:20 40° E 14:14:25 10° SSE
Starlink AS 2.6 14:07:52 10° W 14:10:48 81° N 14:12:31 22° ENE
Starlink BA 2.6 14:08:06 10° W 14:11:02 81° N 14:12:44 22° ENE
Starlink AU 2.6 14:08:19 10° W 14:11:15 81° N 14:12:57 23° ENE
Starlink AT 2.6 14:08:32 10° W 14:11:28 80° N 14:13:10 23° ENE
Starlink BB 2.6 14:08:45 10° W 14:11:41 80° N 14:13:23 23° ENE
Starlink BC 2.6 14:09:00 10° W 14:11:56 80° N 14:13:36 23° ENE
Starlink BK 2.6 14:09:13 10° W 14:12:10 80° N 14:13:49 23° ENE
Starlink AY 2.6 14:09:27 10° W 14:12:24 80° N 14:14:03 23° ENE
Starlink AW 2.6 14:09:41 10° W 14:12:37 80° N 14:14:15 23° ENE
Meteor 1-24 Rocket 4.4 14:07:34 10° SSW 14:12:47 54° WNW 14:18:11 10° N
Starlink BJ 2.6 14:09:54 10° W 14:12:50 80° N 14:14:28 23° ENE
Starlink AV 2.6 14:10:07 10° W 14:13:03 80° N 14:14:41 24° ENE
Starlink BD 2.6 14:10:20 10° W 14:13:16 80° N 14:14:54 24° ENE
Starlink BE 2.7 14:10:32 10° W 14:13:30 80° N 14:15:08 24° ENE
Starlink AQ 2.7 14:10:39 10° W 14:13:36 80° N 14:15:14 24° ENE
Starlink BM 2.6 14:10:47 10° W 14:13:43 80° N 14:15:20 24° ENE
Starlink AX 2.6 14:11:01 10° W 14:13:58 80° N 14:15:33 24° ENE
Cosmos 2219 3.2 14:08:27 10° SSW 14:14:00 67° ESE 14:19:38 10° NE
Starlink BH 2.6 14:11:15 10° W 14:14:12 80° N 14:15:46 24° ENE
Starlink AZ 2.6 14:11:28 10° W 14:14:24 79° N 14:15:59 24° ENE
Starlink BG 2.6 14:11:41 10° W 14:14:37 79° N 14:16:11 25° ENE
Starlink BF 2.6 14:11:56 10° W 14:14:52 79° N 14:16:25 25° ENE
Starlink BL 2.7 14:12:07 10° W 14:15:05 79° N 14:16:40 25° ENE
Starlink AH 2.6 14:12:22 10° W 14:15:19 79° N 14:16:51 25° ENE
Cosmos 2082 4.5 14:10:28 10° SSE 14:15:19 31° ESE 14:19:02 16° NE
Starlink AC 2.6 14:12:36 10° W 14:15:32 79° N 14:17:04 25° ENE
Starlink X 2.6 14:12:49 10° W 14:15:45 79° N 14:17:17 25° ENE
Starlink AE 2.7 14:13:00 10° W 14:15:58 79° N 14:17:32 25° ENE
Starlink Z 2.6 14:13:17 10° W 14:16:13 79° N 14:17:43 26° ENE
Starlink AK 2.6 14:13:29 10° W 14:16:26 79° N 14:17:56 26° ENE
ATLAS CENTAUR R/B 1.5 14:12:25 10° NW 14:16:32 51° NE 14:19:38 15° ESE
Starlink AL 2.6 14:13:43 10° W 14:16:40 79° N 14:18:09 26° ENE
ADEOS Rocket 4.2 14:11:24 10° NE 14:16:45 25° E 14:22:29 10° SE
Starlink AD 2.6 14:13:57 10° W 14:16:53 79° N 14:18:22 26° ENE
Cosmos-2242 2.9 14:12:59 10° N 14:17:19 72° ENE 14:21:36 10° SSE
Starlink Y 2.6 14:14:25 10° W 14:17:21 79° N 14:18:49 26° ENE
Starlink AG 2.6 14:14:38 10° W 14:17:34 79° N 14:19:01 27° ENE
Starlink W 2.7 14:14:48 10° W 14:17:46 79° N 14:19:15 26° ENE
Starlink AJ 2.6 14:15:04 10° W 14:18:00 78° N 14:19:26 27° ENE
Starlink AM 2.6 14:15:31 10° W 14:18:28 78° N 14:19:53 27° ENE
Starlink AP 2.6 14:15:44 10° W 14:18:40 78° N 14:20:05 27° ENE
Starlink AA 2.6 14:15:57 10° W 14:18:54 78° N 14:20:18 28° ENE
Starlink AF 2.6 14:16:11 10° W 14:19:08 78° N 14:20:31 28° ENE
Starlink AB 2.6 14:16:25 10° W 14:19:22 78° N 14:20:45 28° ENE
Starlink AN 2.6 14:16:39 10° W 14:19:35 78° N 14:20:58 28° ENE
Cosmos 1271 Rocket 4.4 14:17:16 10° SW 14:20:40 32° WNW 14:24:08 10° N
CZ-4 R/B 1.4 14:16:44 10° SSE 14:20:46 65° ENE 14:24:55 10° N
ISS -2.2 14:20:01 10° SSW 14:22:49 24° SSE 14:24:04 19° ESE
Cosmos 2297 Rocket 2.3 14:17:33 10° S 14:23:04 58° ESE 14:28:10 12° NE
Cosmos 2251 Rocket 3.5 14:22:15 10° NNW 14:27:33 65° ENE 14:32:50 10° SE
Meteor 1-21 Rocket 4.2 14:22:05 10° S 14:27:42 73° E 14:33:27 10° NNE
H-2A R/B 3.1 14:28:27 21° ENE 14:29:12 22° NE 14:33:03 10° N
ATLAS CENTAUR R/B 4.2 14:23:10 10° WSW 14:29:18 76° NNW 14:42:43 18° ENE
Cosmos 1339 Rocket 4.4 14:24:26 10° N 14:30:33 74° ENE 14:36:41 10° SSE
YAOGAN 1 2.5 14:26:21 10° SSE 14:30:39 66° ENE 14:34:58 10° N
Meteor 2-10 Rocket 3.4 14:25:29 10° NNW 14:30:53 79° ENE 14:36:02 10° SSE
Cosmos 2227 Rocket 2.2 14:30:18 10° SSW 14:35:53 65° ESE 14:40:34 15° NE
Cosmos 2218 Rocket 4.1 14:30:09 10° S 14:36:22 59° E 14:42:39 10° NNE
NOAA 11 4.1 14:32:30 10° SSE 14:37:58 72° ENE 14:43:28 10° NNW
USA 32 4.1 14:34:11 10° S 14:39:25 82° W 14:44:42 10° N
ARGOS 4.1 14:39:02 24° ENE 14:39:42 25° ENE 14:44:00 10° N
Cosmos 724 4.2 14:33:49 10° SW 14:39:47 86° SE 14:44:13 18° NE
Iridium 96 4.0 14:38:00 10° N 14:40:20 60° W 14:42:44 10° S
Cosmos 1356 Rocket 3.4 14:37:06 10° N 14:41:04 51° ENE 14:45:02 10° SSE
Cosmos 1328 3.9 14:37:15 10° S 14:41:09 51° E 14:44:05 17° NNE
Cosmos 1943 3.7 14:43:52 10° NNW 14:49:06 37° NE 14:50:54 30° E
Starlink T 2.7 14:46:06 10° W 14:49:13 75° N 14:49:37 62° ENE
Starlink N 2.7 14:47:47 10° W 14:50:53 75° N 14:51:14 65° ENE
ERBS 2.1 14:48:52 10° WSW 14:52:12 88° SSE 14:52:46 59° ENE
Starlink Q 2.7 14:49:43 10° W 14:52:50 75° N 14:53:06 68° NE
Cosmos 1959 Rocket 4.3 14:47:07 10° S 14:53:15 73° E 14:59:21 10° NNE
Starlink P 2.7 14:51:29 10° W 14:54:36 75° N 14:54:48 71° NE
Starlink U 2.7 14:53:15 10° W 14:56:22 76° N 14:56:29 73° NNE
Starlink B 2.7 14:55:01 10° W 14:58:08 76° N 14:58:12 75° NNE
COSMO-SKYMED 1 2.7 14:54:11 10° NNE 14:58:32 75° WNW 15:02:51 10° SSW
USA 267 3.3 14:55:38 26° ENE 14:59:36 77° NNW 15:06:09 10° WSW
Cosmos 1953 Rocket 3.6 14:56:58 10° SSW 15:01:28 83° WNW 15:05:59 10° N
Cosmos 1932 4.5 14:55:21 10° SW 15:01:46 84° SE 15:05:50 25° NE
Cosmos 1842 Rocket 3.5 14:57:53 10° N 15:02:21 63° ENE 15:06:48 10° SSE
SJ-11-01 4.5 15:01:10 33° ESE 15:02:48 47° ENE 15:07:21 10° N
Cosmos 1758 Rocket 4.5 15:01:57 10° SSW 15:06:07 47° WNW 15:10:20 10° N
CSL-04 Debris 4.5 15:01:29 10° S 15:06:51 69° WSW 15:12:17 10° NNW
Cosmos 2366 rocket 3.9 15:01:29 10° S 15:07:43 87° E 15:14:04 10° N
Cosmos 1190 Rocket 4.4 15:04:00 10° NNW 15:09:00 40° NE 15:09:16 40° ENE
Starlink D 3.1 15:05:51 10° W 15:08:40 66° NW 15:08:40 66° NW
Cosmos 44 2.9 15:05:04 10° SSW 15:09:35 71° SE 15:10:27 54° ENE
CZ-2C R/B 3.7 15:10:37 37° ENE 15:10:37 37° ENE 15:15:38 10° N
Starlink S 3.2 15:07:43 10° W 15:10:28 63° WNW 15:10:28 63° WNW
Cosmos 407 Rocket 3.7 15:06:21 10° NNW 15:11:29 46° ENE 15:12:01 44° ENE
Meteor 2-12 Rocket 4.4 15:05:57 10° S 15:11:51 57° E 15:17:46 10° NNE
Starlink C 3.3 15:09:32 10° W 15:12:13 60° WNW 15:12:13 60° WNW
Starlink E 3.4 15:11:25 10° W 15:14:01 56° WNW 15:14:01 56° WNW
Cosmos 1703 3.4 15:11:30 10° SSW 15:15:28 74° WNW 15:17:52 23° N
Starlink J 3.6 15:13:16 10° W 15:15:49 54° WNW 15:15:49 54° WNW
Starlink V 3.7 15:15:08 10° W 15:17:37 51° WNW 15:17:37 51° WNW
Starlink H 3.8 15:17:01 10° W 15:19:26 48° WNW 15:19:26 48° WNW
Cosmos 1939 Rocket 3.6 15:16:31 10° S 15:20:22 53° W 15:24:19 10° NNW
Cosmos 2082 Rocket 4.3 15:18:51 10° NNW 15:20:42 11° N 15:21:47 11° NNE
Starlink F 3.9 15:18:55 10° W 15:21:15 46° WNW 15:21:15 46° WNW
Starlink G 4.0 15:20:47 10° W 15:23:04 43° WNW 15:23:04 43° WNW
Starlink L 4.1 15:22:40 10° W 15:24:52 41° WNW 15:24:52 41° WNW
Starlink A 4.3 15:24:34 10° W 15:26:42 39° WNW 15:26:42 39° WNW
Starlink R 4.4 15:26:29 10° W 15:28:32 37° WNW 15:28:32 37° WNW
Starlink K 4.5 15:28:20 10° W 15:30:20 35° WNW 15:30:20 35° WNW
Cosmos 1727 Rocket 4.3 15:25:37 10° NNW 15:31:44 65° W 15:37:49 10° S
ATLAS 5 CENTAUR R/B 3.4 15:30:39 10° WNW 15:34:37 24° N 15:35:28 23° NNE
Ariane Rocket 3.0 15:31:18 10° SSE 15:36:21 79° WSW 15:41:30 10° NNW
SL-16 R/B 4.0 15:42:35 10° NW 15:47:28 31° WSW 15:52:20 10° SSW
Cosmos 2221 2.9 15:43:57 10° NNW 15:48:06 62° W 15:48:06 62° W
ATLAS CENTAUR R/B 3.1 15:51:48 10° WNW 15:55:12 26° WSW 15:55:53 25° SW
CZ-4 R/B 4.4 15:53:38 10° SW 15:56:15 16° W 15:58:54 10° NW
Cosmos 2082 4.2 15:53:37 10° SW 15:59:09 57° NW 16:00:57 40° N
ISS -1.1 15:55:55 10° WSW 15:57:02 19° WSW 15:57:02 19° WSW
Cosmos 1603 3.8 15:54:51 10° NW 16:00:32 71° WSW 16:01:24 60° SSW
ADEOS Rocket 3.3 15:56:19 10° NNE 16:02:52 81° WNW 16:10:07 10° SSW
Cosmos 614 Rocket 4.2 16:00:18 10° NNW 16:05:11 69° W 16:05:11 69° W
Cosmos 2297 Rocket 3.5 16:02:16 10° WSW 16:07:26 35° NW 16:10:00 24° N
H-2A R/B 2.4 16:09:03 57° NW 16:09:03 57° NW 16:13:16 10° NNW
Cosmos 1821 Rocket 4.1 16:09:31 10° SSW 16:15:53 75° WNW 16:22:12 10° N
ARGOS 3.6 16:20:31 56° NW 16:20:31 56° NW 16:24:56 10° NNW
Cosmos 2227 Rocket 3.7 16:15:20 10° WSW 16:20:22 32° NW 16:22:25 25° N
NOSS 3-3 (A) 4.4 16:18:56 10° NW 16:26:16 82° SW 16:26:56 75° S
NOSS 3-3 (C) 4.4 16:19:02 10° NW 16:26:22 83° SW 16:27:00 76° SSE
Cosmos 1943 3.9 16:27:54 10° NW 16:32:46 51° W 16:32:46 51° W
Cosmos 2123 Rocket 4.3 16:31:12 10° NNW 16:37:19 62° W 16:37:19 62° W
USA 267 3.6 16:42:58 57° NNW 16:42:58 57° NNW 16:48:47 10° WNW
CZ-2C R/B 4.5 16:51:40 38° WNW 16:51:40 38° WNW 16:55:41 10° NNW
